www.pogodaiklimat.ru

Погода и климат >> Архив погоды >> Россия >> Тверская область >> Торопец


ПОГОДА в Торопце

  • Прогноз погоды в Торопце
  • Монитор погоды в Торопце

АРХИВ ПОГОДЫ в Торопце

Время (UTC), дата Ветер
(напр.,м/с)
 
Видим.   Явления Облачность Т
(С)
Тd
(С)
f
(%)
Тe
(С)
Тes
(С)
Комфортность P
(гПа)
Po
(гПа)
Тmin
(С)
Tmax
(С)
R
(мм)
R24
(мм)
S
(см)
03 10.09 В 1 20 км 8/3 600 м
[Sc Ac trans]
+14.8 +13.2 90 +15 +15 1026.3 1003.9 +12.7
06 10.09 ЮВ 2 20 км 8/3 600 м
[Sc Ac trans]
+18.0 +13.8 76 +19 +20 1026.2 1004.1 +12.7
09 10.09 ЮВ 3 20 км 4/0
[Ci fib]
+22.6 +12.3 52 +25 +31 комфорт 1025.9 1004.1
12 10.09 ЮВ 3 20 км 4/0
[Ci fib]
+24.4 +11.9 46 +26 +31 жарко 1025.2 1003.5
15 10.09 ЮВ 2 20 км 4/0
[Ci fib]
+22.2 +11.9 52 +25 +25 комфорт 1024.8 1003.0
18 10.09 ЮВ 2 20 км 3/0
[Ci fib]
+18.5 +12.6 68 +20 +20 1025.3 1003.2 +24.6
21 10.09 ЮВ 1 20 км ясно +16.0 +11.6 75 +17 +17 1025.8 1003.5
00 11.09 ЮВ 1 20 км ясно +14.5 +11.8 84 +15 +15 1025.8 1003.4
03 11.09 ЮВ 1 20 км 6/3 600 м
[Sc Ci fib]
+13.8 +12.1 89 +14 +14 1025.9 1003.5 +13.8
06 11.09 ЮВ 2 20 км 3/0
[Ci fib]
+17.5 +12.4 72 +18 +20 1025.7 1003.6 +12.5
09 11.09 Ю 3 20 км 9/0
[Ci fib]
+23.5 +8.0 37 +24 +29 комфорт 1025.1 1003.4
12 11.09 Ю 3
{10}
20 км 9/6 600 м
[Sc Ci fib]
+23.4 +6.6 34 +24 +26 комфорт 1024.5 1002.8
15 11.09 Ю 2 20 км 10/8 600 м
[Sc Ci sp]
+22.0 +8.9 43 +23 +23 комфорт 1024.0 1002.2
18 11.09 Ю 1 20 км 10/4 600 м
[Sc Ci sp]
+16.3 +11.2 72 +17 +17 1025.2 1003.0 +24.8
21 11.09 ЮВ 1 20 км 8/0
[Ci sp]
+12.3 +10.9 91 +12 +12 1025.9 1003.3
00 12.09 штиль 0 20 км 8/0
[Ci sp]
+11.8 +10.7 93 +11 +11 1026.0 1003.4
03 12.09 штиль 0 20 км 8/8 600 м
[Sc]
+9.5 +8.8 95 +9 +9 1026.1 1003.3 +9.0
06 12.09 ЮВ 1 20 км 4/0
[Ac trans]
+15.2 +12.2 82 +16 +18 1024.8 1002.5 +9.0
09 12.09 ЮВ 2 20 км 6/0
[Ac trans]
+21.0 +12.3 58 +24 +29 комфорт 1022.8 1001.0
12 12.09 ЮЗ 3 20 км 3/0
[Ci sp]
+23.2 +9.5 42 +25 +29 комфорт 1021.7 1000.0
15 12.09 ЮЗ 2 20 км 8/3 600 м
[Sc Ci sp]
+21.3 +12.2 56 +23 +24 комфорт 1021.4 999.6
18 12.09 Ю 1 20 км 8/0
[Ci sp]
+15.2 +12.5 84 +16 +16 1021.7 999.5 +24.1
21 12.09 ЮЗ 1 20 км 3/0
[Ac trans]
+13.9 +12.0 88 +14 +14 1021.3 999.0
00 13.09 З 1 20 км 8/3 600 м
[Sc Ac trans]
+13.6 +10.7 83 +14 +14 1021.4 999.0
03 13.09 ЮЗ 1 20 км 8/3 600 м
[Sc Ci sp]
+11.3 +9.8 90 +11 +11 1020.7 998.2 +11.3
06 13.09 ЮЗ 2 20 км 6/3 600 м
[Sc Ci sp]
+13.3 +10.8 85 +13 +14 1020.6 998.2 +11.1
09 13.09 ЮЗ 4 20 км 8/4 600 м
[Sc Ci sp]
+16.5 +9.2 62 +16 +18 1019.1 997.0
12 13.09 ЮЗ 3 20 км 9/9 600 м
[Cb cap]
+17.5 +9.0 57 +18 +18 1017.3 995.3
15 13.09 ЮЗ 3 20 км 9/9 600 м
[Sc]
+16.8 +9.9 64 +17 +17 1014.3 992.4
18 13.09 Ю 2 4000 м слаб. ливневой дождь 10/10 600 м
[Cb cap]
+13.5 +12.0 91 +13 +13 1011.3 989.1 +18.6 1
21 13.09 З 5-11
{13}
10 км {ливн. осадки} 8/8 600 м
[Cb cap]
+12.1 +10.1 88 +10 +10 1011.0 988.7
00 14.09 З 4
{12}
10 км {ливн. осадки} 10/10 600 м
[Cb cap]
+11.1 +9.1 87 +9 +9 1012.6 990.2
03 14.09 З 4
{12}
10 км в посл. час ливневой дождь 10/10 600 м
[Cb cap]
+9.9 +8.2 89 +7 +7 1015.3 992.7 +9.7 8
06 14.09 З 4
{12}
20 км {ливн. осадки} 4/4 600 м
[Cb cap]
+10.5 +7.3 81 +8 +9 1017.1 994.6 +9.3 7
09 14.09 З 4
{11}
20 км 6/6 600 м
[Cb cap]
+14.1 +6.8 61 +13 +15 1017.6 995.4
12 14.09 З 4
{11}
20 км 6/6 600 м
[Cb cap]
+15.1 +4.6 49 +14 +16 1017.1 994.9
15 14.09 З 2
{12}
20 км {ливн. осадки} 6/3 600 м
[Cb cap Ci sp]
+9.9 +6.6 80 +8 +9 1018.7 996.1 4
18 14.09 З 3
{12}
20 км {ливн. осадки} 8/5 600 м
[Cb cap Ci sp]
+7.9 +5.7 86 +5 +5 1018.7 995.9 +15.5 4
21 14.09 З 2 20 км 8/3 600 м
[Sc Ci sp]
+6.7 +5.4 91 +4 +4 1019.0 996.1
00 15.09 З 3 20 км 6/0
[Ci fib]
+6.1 +4.9 92 +3 +3 1018.5 995.6
03 15.09 ЮЗ 1 20 км 3/0
[Ci fib]
+4.8 +4.1 95 +3 +3 1018.3 995.3 +4.8
06 15.09 ЮЗ 2 20 км 8/0
[Ci sp]
+8.6 +6.4 86 +7 +9 1016.8 994.1 +3.9
09 15.09 ЮЗ 3 20 км 9/9 600 м
[Cb cap]
+10.4 +7.4 82 +8 +9 1014.3 991.8
12 15.09 Ю 2 2000 м ливневой дождь 10/10 600 м
[Cb cap]
+9.9 +8.5 91 +8 +8 1010.2 987.7
15 15.09 ЮЗ 2
{14}
4000 м слаб. ливневой дождь 10/10 600 м
[Cb cap]
+8.2 +6.5 89 +6 +6 1006.0 983.5 14
18 15.09 ЮЗ 4
{14}
4000 м слаб. ливневой дождь 10/10 600 м
[Cb cap]
+9.5 +7.8 89 +7 +7 1002.3 980.1 +11.2 17
21 15.09 ЮЗ 4
{11}
20 км {ливн. осадки} 3/3 600 м
[Sc]
+10.2 +7.9 86 +8 +8 999.6 977.5
00 16.09 ЮЗ 3-12
{12}
20 км {ливн. осадки} 6/6 600 м
[Cb cap]
+10.1 +8.1 87 +8 +8 998.5 976.4
03 16.09 ЮЗ 3
{12}
20 км 3/3 600 м
[Sc]
+9.4 +7.4 87 +7 +7 997.5 975.3 +8.2 4
06 16.09 З 5
{12}
20 км 9/9 600 м
[Cb cap]
+10.8 +7.8 82 +8 +8 996.9 974.8 +9.3 1
09 16.09 З 5-12
{12}
20 км в посл. час ливневой дождь 9/9 600 м
[Cb cap]
+12.6 +7.7 72 +10 +11 996.9 975.0
12 16.09 З 5-10
{13}
20 км {ливн. осадки} 6/6 600 м
[Cb cap]
+13.9 +8.2 68 +12 +13 996.5 974.7
15 16.09 ЮЗ 3
{10}
20 км в посл. час ливневой дождь 4/4 600 м
[Cb cap]
+11.2 +8.9 86 +9 +10 997.2 975.1 3
18 16.09 З 3
{10}
10 км {ливн. осадки} 3/3 600 м
[Sc]
+9.0 +7.1 88 +6 +6 998.1 975.8 +14.5 4
21 16.09 З 3 20 км 3/3 600 м
[Sc]
+8.3 +6.5 88 +6 +6 998.0 975.7
00 17.09 З 3 20 км 6/6 600 м
[Sc]
+8.4 +6.3 87 +6 +6 997.5 975.3

 

Местоположение метеостанции Торопец (Тверская область, Россия): широта 56.48 долгота 31.63 высота над уровнем моря 187 м.

В архиве по умолчанию представлена погода в Торопце за последнюю неделю. Архивные данные за месяц целиком и за предыдущие месяцы, начиная с января 2011 года, Вы можете получить, выбрав интересующий диапазон дат из раскрывающегося списка и нажав кнопку "Ввод!".


*Определитесь, кто Вы:
робот инопланетянин человек

Внимание! Время в таблицах - всемирное. Для получения местного времени необходимо прибавить поправку, которая равна 3 ч.

Смотрите также архив погоды в соседних городах и на ближайших метеорологических станциях:

Погода в Великих Луках (Псковская область, Россия) (64 км)
Погода в Холме (Новгородская область, Россия) (79 км)
Погода в Лесном Заповеднике (Тверская область, Россия) (80 км)
Погода в Велиже (Смоленская область, Россия) (100 км)
Погода в Пржевальском (Смоленская область, Россия) (107 км)
Погода в Белом (Тверская область, Россия) (108 км)
Погода в Осташкове (Тверская область, Россия) (114 км)
Погода в Сущево (Псковская область, Россия) (120 км)
Погода в Езерище (Витебская область, Беларусь) (124 км)
Погода в Демидове (Смоленская область, Россия) (134 км)

Пояснения к столбцам:

Ветер - указаны скорость ветра в м/с - средняя за 10 мин, порывы в срок и между сроками (в фигурных скобках) и направление, откуда дует ветер: С - северный, СВ - северо-восточный, В - восточный, ЮВ - юго-восточный, Ю - южный, ЮЗ - юго-западный, З - западный, СЗ - северо-западный.
Видимость - горизонтальная дальность видимости в метрах или километрах. При видимости от 1 до 10 км при отсутствии осадков обычно наблюдается дымка, при ухудшении видимости до 1 км и менее - туман. В сухую погоду видимость может ухудшаться дымом, пылью или мглою.
Явления - указаны атмосферные явления, наблюдавшиеся в срок или в последний час перед сроком; фигурными скобками обозначены явления, наблюдавшиеся между сроками (за 1-3 часа до срока); квадратными скобками обозначены град или гололедные отложения с указанием их диаметра в мм.
Облачность - указаны через наклонную черту общая и нижняя облачность в баллах и высота нижней границы облаков в метрах; квадратными скобками обозначены формы облаков: Ci - перистые, Cs - перисто-слоистые, Cc - перисто-кучевые, Ac - высококучевые, As - высокослоистые, Sc - слоисто-кучевые, Ns - слоисто-дождевые, Cu - кучевые, Cb - кучево-дождевые. Подробнее классификацию облаков см. в Атласе облаков (PDF).
T - Температура воздуха - температура, измеренная на высоте 2 м над землей.
Td - Температура точки росы - температура, при понижении до которой содержащийся в воздухе водяной пар достигнет насыщения.
f - Относительная влажность воздуха - влажноcть воздуха, измеренная на высоте 2 м над землей.
Te - Эффективная температура - температура, которую ощущает одетый по сезону человек в тени. Характеристика душности погоды. При расчете учитывается влияние влажности воздуха и скорости ветра на теплоощущения человека.
Tes - Эффективная температура на солнце - температура, которую ощущает человек, с поправкой на солнечный нагрев. Характеристика знойности погоды. Зависит от высоты солнца над горизонтом, облачности и скорости ветра. Ночью, в пасмурную погоду, а также при ветре 12 м/с и более поправка равна нулю.
P - Атмосферное давление - приведенное к уровню моря атмосферное давление.
Po - Атмосферное давление - измеренное на уровне метеостанции атмосферное давление.
Tmin - Минимальная температура - минимум температуры воздуха на высоте 2 м над землей.
Tmax - Максимальная температура - максимум температуры воздуха на высоте 2 м над землей.
R - Количество осадков - Количество выпавших осадков за период времени, мм. При наведении курсора мыши на число - период времени, за который выпало указанное количество осадков.
R24 - Количество осадков - Количество выпавших осадков за 24 часа, мм.
S - Снежный покров - Высота снежного покрова, см. При наведении курсора мыши на число - состояние снежного покрова и степень покрытия местности в баллах.